Flag for Argentina Weather past 2 weeks in Comodoro Rivadavia, Chubut, Argentina

Now
37 °F

Clear.


Feels Like: 37 °F
Forecast: 38 / 57 °F
Wind: No wind

Location: Comodoro Rivadavia Aerodrome

Current Time: Aug 30, 2014 at 8:08:46 AM

Latest Report: Aug 30, 2014 at 7:00 AM


Visibility: 10 mi

Pressure: 29.83 "Hg

Humidity: 100%

Dew point: 37 °F

Location of Comodoro RivadaviaLocation

Historic Weather in Comodoro Rivadavia — Graph

°F

Comodoro Rivadavia temperature yesterday

Maximum temperature yesterday: 52 °F (at 2:00 PM)
Minimum temperature yesterday: 37 °F (at 7:00 AM)
Average temperature yesterday: 45 °F

Past Weeks' High & Low Weather Summary

 TemperatureHumidityPressure
High72 °F (Aug 17, 3:00 PM)100% (Aug 21, 11:00 PM)30.45 "Hg (Aug 21, 11:00 PM)
Low32 °F (Aug 26, 5:00 AM)20% (Aug 15, 1:00 PM)29.53 "Hg (Aug 16, 6:46 AM)
Average48 °F73%30.00 "Hg
* Reported Aug 15 7:00 AM — Aug 30 7:00 AM, Comodoro Rivadavia, Weather by CustomWeather, © 2014

Note: Actual official high and low records may vary slightly from our data, if they occured in-between our weather recording intervals... More about our weather records

Advertising

Comodoro Rivadavia weather history for previous 24 hours

 ConditionsComfort  
Time TempWeatherWind HumidityBarometerVisibility
7:00 AM
Aug 30
37 °FClear.No wind100%29.83 "Hg10 mi
6:00 AM36 °FFog.2 mph100%29.83 "HgN/A
5:00 AM37 °FFog.No wind100%29.83 "Hg0 mi
4:00 AM37 °FFog.2 mph93%29.83 "Hg0 mi
3:00 AM36 °FPassing clouds.2 mph100%29.86 "HgN/A
2:00 AM37 °FFog.No wind100%29.86 "Hg1 mi
1:00 AM39 °FDense fog.No wind93%29.86 "Hg0 mi
12:00 AM39 °FDense fog.No wind93%29.89 "Hg0 mi
11:00 PM
Aug 29
43 °FPassing clouds.No wind87%29.86 "HgN/A
10:00 PM39 °FClear.No wind93%29.89 "Hg10 mi
9:00 PM45 °FClear.3 mph87%29.89 "Hg10 mi
8:00 PM45 °FClear.2 mph93%29.89 "Hg10 mi
7:00 PM48 °FClear.No wind94%29.86 "Hg10 mi
6:00 PM48 °FClear.6 mph94%29.83 "Hg10 mi
4:00 PM52 °FSunny.5 mph82%29.83 "Hg10 mi
3:00 PM52 °FSunny.5 mph72%29.83 "Hg10 mi
2:00 PM52 °FSunny.6 mph77%29.86 "Hg10 mi
1:00 PM50 °FSunny.7 mph82%29.89 "Hg10 mi
12:00 PM50 °FSunny.8 mph82%29.89 "Hg10 mi
11:00 AM50 °FSunny.3 mph71%29.89 "Hg10 mi
10:00 AM48 °FSunny.1 mph66%29.89 "Hg10 mi
9:00 AM41 °FSunny.2 mph76%29.89 "Hg10 mi
8:00 AM39 °FSunny.2 mph81%29.89 "Hg10 mi
Weather by CustomWeather, © 2014

See weather overviewHow to use our weather pages